Weather in Fiy

Russia / Republic of Dagestan     41°17′21″N   47°33′51″E
temp.,
°C
wind,
m/s
gust,
m/s
humid.,
%
clouds,
%
prec.,
mm/h
press.,
hPa
HPBL,
m
16 may, sun
sun1600:00+5nne12815 0.0 102018
03:00+5nne127710 0.0 101919
06:00+7se13631 0.0 101969
09:00+11s33320 0.0 1018715
12:00+13ssw43340 0.0 10171069
15:00+13ssw33350 0.0 1016984
18:00+9s23550 0.0 1016198
21:00+5n12515 0.0 101828
17 may, mon
mon1700:00+5nnw1255100 0.0 101727
03:00+6nnw125014 0.0 101527
06:00+10wnw12530 0.0 101447
09:00+14sw334297 0.0 1013922
12:00+16sw444081 0.0 10121454
15:00+17sw34370 0.0 10111588
18:00+13sw2264100 0.0 1013113
21:00+10nne2264100 0.2 101431
18 may, tue
tue1800:00+9ese245382 0.3 101348
03:00+8ese125155 0.4 101121
06:00+9se036964 0.7 101178
09:00+13ssw34581 2.1 1010901
12:00+14sw47422 0.4 10102134
15:00+14sw473750 0.4 10112264
18:00+6ne448576 3.5 1015118
21:00+7n126228 3.6 101521
19 may, wed
wed1900:00+6nnw126616 0.0 101520
03:00+5nnw23630 0.0 101626
06:00+8nnw23520 0.0 101668
09:00+13wsw35442 0.0 10141238
12:00+15wsw46402 0.0 10141747
15:00+15wsw34414 0.0 10141543
18:00+12wnw12582 0.0 1016163
21:00+8ssw13645 0.0 102040
20 may, thu
thu2000:00+7nnw22626 0.0 102015
03:00+7n116513 0.0 102011
06:00+10s116112 0.0 102199
09:00+13ssw32578 0.0 1020682
12:00+15ssw43632 0.0 1019936
15:00+15ssw43600 0.0 1018907
18:00+12ssw33767 0.0 1019400
21:00+8wnw12871 0.0 102122